Location: ????????
(60.5616°N, 46.8254°E)
Time: 15:29:56
(UTC+00:00)

IDEFIX/ARIANE 42P - Pass Details

Date: 18 February 2020
Orbit: 784 x 803 km, 98.3° (Epoch: 27 March)

Event Time Altitude Azimuth Distance (km) Brightness Sun altitude
Rises 23:24:04 0° 20° (NNE) 3,325 6.7 -34.9°
Reaches altitude 10° 23:26:49 10° 33° (NNE) 2,387 5.8 -34.7°
Maximum altitude 23:31:11 26° 89° (E) 1,549 4.4 -34.3°
Enters shadow 23:31:41 25° 98° (E) 1,562 4.3 -34.2°
